Regional Weather Roundup
Issued by NWS Little Rock, AR

Home | Current Version | Previous Version | Text Only | Print | Product List | Glossary Off
Versions: 1 2 3 4 5 6 7 8 9 10 11 12 13 14 15 16 17 18 19 20 21 22 23 24 25 26 27

000
ASUS44 KLZK 261505
RWRLZK

WEATHER ROUNDUP FOR ARKANSAS
NATIONAL WEATHER SERVICE LITTLE ROCK AR
1000 AM CDT THU MAY 26 2016

NOTE: "FAIR" INDICATES FEW OR NO CLOUDS BELOW 12,000 FEET WITH NO
SIGNIFICANT WEATHER AND/OR OBSTRUCTIONS TO VISIBILITY.

ARZ001-003-010-029-261600-
NORTHWEST ARKANSAS

CITY           SKY/WX    TMP DP  RH WIND       PRES   REMARKS
FAYETTEVILLE   PTSUNNY   78  73  84 S12       29.97R
FORT SMITH     CLOUDY    80  70  71 VRB6      29.95R
HARRISON       SUNNY     81  71  71 S8        30.00S HX  85
BENTONVILLE    PTSUNNY   81  70  69 S8        29.97S
ROGERS           N/A     81  72  74 S12       29.98S
SILOAM SPGS    CLOUDY    77  66  69 S10       29.97S
HIGHFILL       CLOUDY    79  73  82 S8        29.96S
SPRINGDALE     PTSUNNY   79  73  83 S9        29.99S
$$

ARZ004-005-016-261600-
NORTH CENTRAL ARKANSAS

CITY           SKY/WX    TMP DP  RH WIND       PRES   REMARKS
BATESVILLE     CLOUDY    77  72  83 SE5       30.02S
FLIPPIN        SUNNY    N/A N/A N/A SE6       29.95F
MTN HOME       SUNNY     81  73  76 S8        29.97F HX  86
$$

ARZ040-041-261600-
WEST CENTRAL ARKANSAS

CITY           SKY/WX    TMP DP  RH WIND       PRES   REMARKS
MENA           PTSUNNY   81  73  78 SW5       30.00S HX  85
MOUNT IDA      CLOUDY    79  70  74 VRB3      29.99R
$$

ARZ009-017-025-026-028-261600-
NORTHEAST ARKANSAS

CITY           SKY/WX    TMP DP  RH WIND       PRES   REMARKS
CORNING          N/A     75  75 100 S14       30.04R
JONESBORO      CLOUDY    77  72  84 S10       30.04S
NEWPORT        CLOUDY    77  76  96 SE7       30.04R
WALNUT RIDGE   SUNNY     75  70  83 S14       30.02F
BLYTHEVILLE    CLOUDY    79  73  82 SW12G21   30.07R
$$

ARZ022-023-033-042-044-261600-
CENTRAL ARKANSAS

CITY           SKY/WX    TMP DP  RH WIND       PRES   REMARKS
LITTLE ROCK    CLOUDY    82  72  71 S12       30.01S HX  87
N LITTLE ROCK    N/A     79  73  82 SW6       29.99S
JACKSONVILLE   PTSUNNY   80  73  80 S8        30.01R
SEARCY         CLOUDY    79  73  83 S10       30.02S
HOT SPRINGS    CLOUDY    79  71  76 SW7       30.01R
RUSSELLVILLE   PTSUNNY   82  72  71 SW7       29.97R HX  87
CLINTON        CLOUDY    81  73  78 S5        29.99R HX  85
$$

ARZ036-261600-
EAST ARKANSAS

CITY           SKY/WX    TMP DP  RH WIND       PRES   REMARKS
WEST MEMPHIS   PTSUNNY   80  72  76 S12G17    30.04S
$$

ARZ050-053-066-070-073-261600-
SOUTHWEST ARKANSAS

CITY           SKY/WX    TMP DP  RH WIND       PRES   REMARKS
ARKADELPHIA    PTSUNNY   80  80 100 SW8       30.01R HX  87
CAMDEN         CLOUDY    82  72  69 S8        30.02R HX  87
TEXARKANA      CLOUDY    79  73  82 S10       30.00S
EL DORADO      MOSUNNY   82  73  74 S10       30.02S HX  87
DE QUEEN       CLOUDY    79  74  84 S3        29.96F
$$

ARZ056-057-069-261600-
SOUTHEAST ARKANSAS

CITY           SKY/WX    TMP DP  RH WIND       PRES   REMARKS
PINE BLUFF     MOSUNNY   81  71  71 SW15      30.02S HX  85
STUTTGART      CLOUDY    81  70  69 S16       30.03S
MONTICELLO     CLOUDY    82  72  71 S9G18     30.05R HX  87

$$






USA.gov is the U.S. government's official web portal to all federal, state and local government web resources and services.